�������l�o���
Date,Time,MP-1(��Sv/h),MP-2(��Sv/h),MP-3(��Sv/h),MP-4(��Sv/h),MP-5(��Sv/h),MP-6(��Sv/h),MP-7(��Sv/h),MP-8(��Sv/h),����,����(m/s),���J
2022/08/04,00:00,0.591,0.818,0.531,0.996,0.707,0.343,0.578,0.547,-,CALM,�L
2022/08/04,00:10,0.591,0.817,0.532,0.995,0.706,0.343,0.579,0.547,��,2.6,�L
2022/08/04,00:20,0.589,0.816,0.530,0.993,0.705,0.343,0.579,0.549,-,CALM,�L
2022/08/04,00:30,0.590,0.816,0.531,0.991,0.705,0.340,0.578,0.548,�k�k��,9.9,�L
2022/08/04,00:40,0.589,0.817,0.530,0.991,0.706,0.342,0.578,0.548,�k�k��,7.5,�L
2022/08/04,00:50,0.592,0.819,0.530,0.991,0.704,0.343,0.578,0.547,�k,5.4,�L
2022/08/04,01:00,0.592,0.820,0.530,0.993,0.707,0.343,0.579,0.548,�k�k��,3.8,�L
2022/08/04,01:10,0.588,0.818,0.529,0.990,0.706,0.342,0.579,0.547,�k,4.8,�L
2022/08/04,01:20,0.588,0.817,0.528,0.993,0.704,0.341,0.577,0.548,�k,2.6,��
2022/08/04,01:30,0.587,0.818,0.524,0.992,0.704,0.339,0.578,0.549,�k�k��,2.5,��
2022/08/04,01:40,0.586,0.817,0.525,0.991,0.704,0.338,0.579,0.547,�k,3.1,��
2022/08/04,01:50,0.586,0.816,0.526,0.990,0.702,0.337,0.577,0.547,�k,3.9,��
2022/08/04,02:00,0.583,0.813,0.524,0.990,0.701,0.337,0.578,0.547,�k,3.3,�L
2022/08/04,02:10,0.583,0.814,0.525,0.991,0.701,0.337,0.575,0.546,�k,3.1,�L
2022/08/04,02:20,0.582,0.815,0.523,0.991,0.702,0.335,0.578,0.546,�k,3.5,��
2022/08/04,02:30,0.581,0.816,0.525,0.991,0.700,0.334,0.578,0.545,�k,2.3,��
2022/08/04,02:40,0.581,0.814,0.524,0.991,0.700,0.335,0.575,0.546,�k,1.7,��
2022/08/04,02:50,0.582,0.816,0.523,0.989,0.702,0.334,0.576,0.548,�k,2.3,�L
2022/08/04,03:00,0.581,0.814,0.525,0.992,0.701,0.335,0.576,0.546,�k�k��,2.5,�L
2022/08/04,03:10,0.582,0.814,0.524,0.992,0.702,0.336,0.577,0.547,�k,2.2,�L
2022/08/04,03:20,0.581,0.813,0.525,0.992,0.701,0.336,0.577,0.548,�k,3.2,�L
2022/08/04,03:30,0.581,0.810,0.523,0.989,0.699,0.337,0.576,0.546,�k,2.9,�L
2022/08/04,03:40,0.578,0.807,0.523,0.987,0.697,0.336,0.573,0.545,�k�k��,1.4,�L
2022/08/04,03:50,0.578,0.805,0.522,0.984,0.694,0.336,0.572,0.544,��쓌,0.8,�L
2022/08/04,04:00,0.578,0.802,0.521,0.980,0.689,0.335,0.573,0.544,-,CALM,�L
2022/08/04,04:10,0.577,0.801,0.519,0.974,0.689,0.335,0.571,0.542,�쓌,0.6,�L
2022/08/04,04:20,0.578,0.804,0.520,0.973,0.690,0.336,0.571,0.543,�k��,3.4,�L
2022/08/04,04:30,0.580,0.807,0.522,0.979,0.693,0.338,0.573,0.542,�k�k��,1.5,�L
2022/08/04,04:40,0.581,0.809,0.525,0.978,0.694,0.338,0.575,0.544,�k,2.0,�L
2022/08/04,04:50,0.582,0.811,0.523,0.976,0.687,0.336,0.573,0.543,��,2.6,�L
2022/08/04,05:00,0.581,0.808,0.520,0.969,0.680,0.334,0.567,0.536,�k�k��,1.7,�L
2022/08/04,05:10,0.581,0.807,0.519,0.970,0.684,0.336,0.568,0.541,�k,1.7,�L
2022/08/04,05:20,0.581,0.808,0.520,0.971,0.685,0.337,0.570,0.542,�k,1.4,�L
2022/08/04,05:30,0.580,0.805,0.520,0.971,0.687,0.335,0.570,0.541,�k,2.3,�L
2022/08/04,05:40,0.581,0.807,0.521,0.974,0.686,0.336,0.570,0.541,�k,2.8,�L
2022/08/04,05:50,0.577,0.804,0.521,0.971,0.684,0.337,0.571,0.542,�k�k��,2.6,�L
2022/08/04,06:00,0.579,0.803,0.520,0.970,0.686,0.335,0.570,0.541,�k�k��,2.3,�L
2022/08/04,06:10,0.578,0.806,0.521,0.973,0.685,0.336,0.570,0.541,�k��,1.4,�L
2022/08/04,06:20,0.578,0.806,0.519,0.973,0.687,0.336,0.570,0.541,�k,0.9,�L
2022/08/04,06:30,0.577,0.805,0.520,0.973,0.687,0.336,0.570,0.542,�k,1.7,�L
2022/08/04,06:40,0.578,0.808,0.520,0.974,0.687,0.335,0.571,0.541,�k,2.6,�L
2022/08/04,06:50,0.577,0.806,0.519,0.974,0.690,0.334,0.572,0.542,�k�k��,2.9,�L
2022/08/04,07:00,0.576,0.805,0.518,0.973,0.687,0.335,0.571,0.543,�k�k��,1.7,��
2022/08/04,07:10,0.576,0.807,0.520,0.975,0.688,0.334,0.571,0.543,�k�k��,1.5,�L
2022/08/04,07:20,0.575,0.806,0.519,0.975,0.686,0.334,0.573,0.541,�k,1.9,�L
2022/08/04,07:30,0.574,0.804,0.520,0.977,0.687,0.333,0.572,0.540,�k�k��,3.7,�L
2022/08/04,07:40,0.575,0.800,0.517,0.973,0.687,0.333,0.572,0.542,�k�k��,2.5,�L
2022/08/04,07:50,0.575,0.802,0.518,0.974,0.686,0.333,0.571,0.542,�k�k��,2.0,�L
2022/08/04,08:00,0.576,0.800,0.516,0.974,0.683,0.332,0.572,0.542,�k�k��,2.8,�L
2022/08/04,08:10,0.575,0.802,0.517,0.972,0.683,0.332,0.571,0.544,�k��,3.2,�L
2022/08/04,08:20,0.574,0.802,0.517,0.973,0.684,0.331,0.570,0.542,�k�k��,1.9,�L
2022/08/04,08:30,0.574,0.800,0.516,0.973,0.685,0.332,0.573,0.542,�k�k��,2.5,�L
2022/08/04,08:40,0.575,0.802,0.517,0.970,0.685,0.330,0.573,0.542,�k��,2.8,�L
2022/08/04,08:50,0.574,0.801,0.515,0.971,0.685,0.332,0.571,0.543,�k��,3.1,�L
2022/08/04,09:00,0.574,0.801,0.515,0.973,0.685,0.333,0.571,0.543,�k�k��,2.8,�L
2022/08/04,09:10,0.575,0.802,0.516,0.969,0.684,0.331,0.572,0.543,�k�k��,2.5,�L
2022/08/04,09:20,0.574,0.799,0.513,0.971,0.685,0.332,0.572,0.541,�k�k��,2.5,�L
2022/08/04,09:30,0.575,0.801,0.514,0.971,0.685,0.331,0.570,0.542,�k�k��,2.0,�L
2022/08/04,09:40,0.574,0.799,0.516,0.972,0.686,0.331,0.573,0.543,�k,2.0,�L
2022/08/04,09:50,0.573,0.800,0.517,0.971,0.686,0.331,0.571,0.543,�k�k��,3.5,�L
2022/08/04,10:00,0.574,0.801,0.516,0.973,0.685,0.332,0.571,0.542,�k�k��,3.3,�L
2022/08/04,10:10,0.575,0.800,0.518,0.969,0.687,0.334,0.571,0.544,�k��,2.8,�L
2022/08/04,10:20,0.575,0.800,0.517,0.972,0.687,0.333,0.572,0.542,���k��,2.8,�L
2022/08/04,10:30,0.577,0.801,0.517,0.971,0.685,0.332,0.572,0.543,�k��,2.2,�L
2022/08/04,10:40,0.575,0.803,0.516,0.972,0.686,0.333,0.573,0.544,�k�k��,1.5,�L
2022/08/04,10:50,0.573,0.802,0.516,0.970,0.686,0.333,0.573,0.544,�k�k��,2.6,�L
2022/08/04,11:00,0.578,0.802,0.515,0.971,0.687,0.333,0.571,0.543,�k�k��,3.3,�L
2022/08/04,11:10,0.575,0.801,0.515,0.970,0.686,0.333,0.574,0.542,�k��,3.4,�L
2022/08/04,11:20,0.577,0.802,0.515,0.970,0.686,0.331,0.573,0.543,�k��,2.6,�L
2022/08/04,11:30,0.574,0.804,0.515,0.970,0.687,0.331,0.572,0.544,�k�k��,2.3,�L
2022/08/04,11:40,0.575,0.804,0.514,0.971,0.686,0.331,0.573,0.545,�k��,2.5,�L
2022/08/04,11:50,0.575,0.804,0.515,0.972,0.687,0.332,0.574,0.542,�k��,2.5,�L
2022/08/04,12:00,0.576,0.805,0.517,0.971,0.688,0.332,0.573,0.543,�k��,3.1,�L
2022/08/04,12:10,0.577,0.805,0.514,0.974,0.688,0.332,0.573,0.543,�k��,3.3,��
2022/08/04,12:20,0.576,0.805,0.516,0.973,0.689,0.333,0.574,0.544,�k�k��,2.6,��
2022/08/04,12:30,0.576,0.804,0.515,0.973,0.687,0.331,0.574,0.542,�k�k��,2.6,��
2022/08/04,12:40,0.577,0.805,0.515,0.972,0.688,0.332,0.573,0.543,�k�k��,2.5,��
2022/08/04,12:50,0.575,0.802,0.515,0.975,0.689,0.331,0.575,0.542,�k�k��,2.6,��
2022/08/04,13:00,0.575,0.804,0.515,0.973,0.690,0.331,0.575,0.542,�k�k��,3.1,��
2022/08/04,13:10,0.578,0.805,0.516,0.974,0.688,0.332,0.577,0.543,�k��,2.8,��
2022/08/04,13:20,0.577,0.804,0.515,0.973,0.690,0.332,0.574,0.544,�k��,2.3,��
2022/08/04,13:30,0.578,0.804,0.516,0.976,0.690,0.332,0.576,0.543,�k��,2.3,��
2022/08/04,13:40,0.577,0.805,0.516,0.973,0.689,0.332,0.575,0.544,�k��,1.7,��
2022/08/04,13:50,0.579,0.806,0.515,0.975,0.690,0.333,0.574,0.544,�k��,3.0,��
2022/08/04,14:00,0.577,0.807,0.515,0.975,0.690,0.332,0.576,0.545,�k��,2.6,��
2022/08/04,14:10,0.579,0.807,0.516,0.975,0.690,0.332,0.577,0.543,�k��,2.3,��
2022/08/04,14:20,0.575,0.804,0.516,0.974,0.691,0.331,0.577,0.545,�k�k��,2.6,��
2022/08/04,14:30,0.578,0.804,0.515,0.976,0.691,0.333,0.578,0.545,�k��,3.2,�L
2022/08/04,14:40,0.577,0.806,0.516,0.977,0.691,0.333,0.577,0.545,�k��,3.2,�L
2022/08/04,14:50,0.578,0.808,0.516,0.975,0.693,0.332,0.577,0.545,�k�k��,4.3,��
2022/08/04,15:00,0.577,0.807,0.516,0.978,0.693,0.332,0.578,0.544,�k��,4.5,��
2022/08/04,15:10,0.579,0.807,0.516,0.977,0.691,0.332,0.577,0.545,�k�k��,3.4,��
2022/08/04,15:20,0.576,0.808,0.518,0.978,0.694,0.333,0.578,0.544,�k�k��,3.7,��
2022/08/04,15:30,0.579,0.808,0.519,0.975,0.695,0.332,0.577,0.545,�k��,2.6,��
2022/08/04,15:40,0.578,0.811,0.520,0.976,0.694,0.333,0.575,0.546,�k��,2.0,��
2022/08/04,15:50,0.575,0.810,0.518,0.978,0.696,0.332,0.578,0.544,�k�k��,2.3,��
2022/08/04,16:00,0.575,0.809,0.518,0.979,0.695,0.334,0.577,0.547,�k��,2.5,��
2022/08/04,16:10,0.576,0.812,0.517,0.979,0.695,0.332,0.578,0.544,�k�k��,3.1,��
2022/08/04,16:20,0.575,0.809,0.519,0.977,0.694,0.333,0.577,0.546,�k��,3.2,��
2022/08/04,16:30,0.575,0.814,0.518,0.979,0.695,0.332,0.577,0.546,�k�k��,3.7,��
2022/08/04,16:40,0.575,0.812,0.518,0.976,0.695,0.333,0.579,0.547,�k�k��,3.7,��
2022/08/04,16:50,0.576,0.813,0.519,0.980,0.695,0.333,0.578,0.546,�k�k��,3.9,��
2022/08/04,17:00,0.575,0.811,0.518,0.981,0.694,0.333,0.578,0.545,�k�k��,3.6,��
2022/08/04,17:10,0.575,0.813,0.518,0.979,0.695,0.333,0.577,0.545,�k�k��,3.9,��
2022/08/04,17:20,0.573,0.814,0.519,0.980,0.696,0.332,0.577,0.546,�k�k��,3.9,�L
2022/08/04,17:30,0.577,0.813,0.518,0.979,0.695,0.333,0.579,0.545,�k�k��,3.7,��
2022/08/04,17:40,0.579,0.814,0.519,0.980,0.696,0.333,0.578,0.547,�k�k��,4.0,��
2022/08/04,17:50,0.578,0.813,0.519,0.981,0.696,0.333,0.579,0.545,�k�k��,3.8,��
2022/08/04,18:00,0.579,0.812,0.521,0.981,0.697,0.333,0.578,0.545,�k�k��,4.5,��
2022/08/04,18:10,0.579,0.813,0.519,0.978,0.696,0.333,0.578,0.546,�k�k��,4.0,��
2022/08/04,18:20,0.581,0.814,0.519,0.983,0.696,0.334,0.579,0.546,�k��,3.2,��
2022/08/04,18:30,0.579,0.816,0.521,0.980,0.695,0.334,0.579,0.546,�k�k��,3.4,��
2022/08/04,18:40,0.579,0.813,0.520,0.979,0.697,0.334,0.577,0.546,�k��,2.6,��
2022/08/04,18:50,0.582,0.813,0.521,0.982,0.698,0.334,0.577,0.546,�k��,2.6,��
2022/08/04,19:00,0.582,0.815,0.521,0.981,0.694,0.334,0.579,0.547,�k��,1.9,��
2022/08/04,19:10,0.582,0.815,0.522,0.979,0.697,0.333,0.578,0.546,�k�k��,1.7,��
2022/08/04,19:20,0.581,0.815,0.523,0.981,0.697,0.335,0.579,0.545,�k��,2.0,��
2022/08/04,19:30,0.583,0.816,0.521,0.979,0.696,0.333,0.579,0.547,�k�k��,1.9,��
2022/08/04,19:40,0.581,0.816,0.522,0.979,0.696,0.334,0.580,0.548,�k�k��,1.5,��
2022/08/04,19:50,0.582,0.816,0.520,0.981,0.697,0.334,0.577,0.547,�k��,1.4,��
2022/08/04,20:00,0.581,0.815,0.522,0.981,0.699,0.334,0.578,0.547,���k��,2.2,��
2022/08/04,20:10,0.582,0.817,0.521,0.982,0.697,0.334,0.579,0.548,�k�k��,2.0,�L
2022/08/04,20:20,0.580,0.817,0.522,0.982,0.699,0.334,0.579,0.548,�k�k��,1.7,�L
2022/08/04,20:30,0.580,0.816,0.522,0.981,0.698,0.334,0.578,0.549,�k�k��,2.0,��
2022/08/04,20:40,0.582,0.816,0.521,0.981,0.699,0.334,0.579,0.548,�k�k��,2.0,��
2022/08/04,20:50,0.580,0.815,0.523,0.983,0.699,0.335,0.581,0.547,�k�k��,2.0,��
2022/08/04,21:00,0.582,0.816,0.521,0.981,0.700,0.335,0.579,0.547,�k�k��,2.0,��
2022/08/04,21:10,0.582,0.816,0.521,0.981,0.698,0.335,0.580,0.549,�k�k��,1.7,��
2022/08/04,21:20,0.582,0.817,0.522,0.981,0.700,0.335,0.581,0.549,�k��,2.0,��
2022/08/04,21:30,0.581,0.818,0.520,0.983,0.700,0.336,0.580,0.547,�k�k��,2.5,��
2022/08/04,21:40,0.582,0.816,0.523,0.983,0.699,0.334,0.579,0.550,�k�k��,2.2,��
2022/08/04,21:50,0.581,0.817,0.523,0.980,0.700,0.335,0.580,0.550,�k��,2.5,��
2022/08/04,22:00,0.582,0.818,0.522,0.981,0.698,0.335,0.579,0.549,�k��,2.6,��
2022/08/04,22:10,0.581,0.817,0.522,0.982,0.701,0.334,0.579,0.549,�k�k��,3.0,��
2022/08/04,22:20,0.582,0.816,0.522,0.981,0.701,0.336,0.581,0.549,�k��,3.2,��
2022/08/04,22:30,0.582,0.816,0.523,0.981,0.699,0.334,0.579,0.549,�k�k��,2.3,��
2022/08/04,22:40,0.582,0.815,0.523,0.982,0.702,0.336,0.580,0.549,�k��,3.1,�L
2022/08/04,22:50,0.580,0.818,0.522,0.980,0.700,0.334,0.580,0.549,�k�k��,2.8,�L
2022/08/04,23:00,0.582,0.817,0.522,0.981,0.700,0.335,0.579,0.549,�k�k��,2.2,�L
2022/08/04,23:10,0.582,0.816,0.522,0.983,0.700,0.335,0.578,0.549,�k�k��,2.3,�L
2022/08/04,23:20,0.582,0.817,0.522,0.982,0.701,0.335,0.580,0.549,�k��,3.1,�L
2022/08/04,23:30,0.581,0.816,0.522,0.983,0.700,0.335,0.580,0.549,�k��,2.8,��
2022/08/04,23:40,0.584,0.818,0.522,0.980,0.700,0.335,0.580,0.549,�k�k��,2.6,��
2022/08/04,23:50,0.584,0.817,0.523,0.984,0.699,0.336,0.580,0.549,�k�k��,2.3,��
